Date String (YYYY-MM-DD hh:mm:ss) UTC,Instrument flags,absolute air pressure of the measurement (hPa),sample flow rate (lpm),inlet stack bypass flow (lpm),air temperature of the measurement (°C),ambient temperature measured by the external sensor (°C),aerosol sample conditioner tube jacket temperature (°C),OPC LED temperature (°C),internal box temperature (°C),relative humidity of the measurement (%),span deviation,mass concentration of particles derived from Lorenz-Mie calculation of OPC scattering (μg/m³),mass concentration of particles derived from Lorenz-Mie calculation of OPC scattering (μg/m³),mass concentration of particles derived from Lorenz-Mie calculation of OPC scattering (μg/m³)
DateTimeUTC,F1_M11,P_M11,Q1_M11,Q2_M11,T1_M11,T2_M11,T3_M11,T4_M11,T5_M11,U1_M11,ZSPAN_M11,X0_M11,X2_M11,X1_M11
2023-09-17 07:00:00,SystemResetWarning,0835.5,5.02,000.00,028.9,027.4,000.0,037.3,030.5,16.8,-002.6,0007.85,0004.38,0004.00
2023-09-17 07:01:00,SystemResetWarning,0835.5,5.00,000.00,028.9,027.4,000.0,037.3,030.5,16.8,-002.1,0007.90,0004.34,0003.99
2023-09-17 07:02:00,SystemResetWarning,0835.5,5.00,000.00,028.9,027.4,000.0,037.3,030.5,16.8,-001.8,0008.18,0004.37,0003.99
2023-09-17 07:03:00,SystemResetWarning,0835.5,4.99,000.00,028.9,027.4,000.0,037.3,030.5,16.7,-001.4,0008.19,0004.36,0003.98
2023-09-17 07:04:00,SystemResetWarning,0835.5,4.99,000.00,028.9,027.4,000.0,037.3,030.5,16.7,-000.4,0008.59,0004.39,0003.98
2023-09-17 07:05:00,SystemResetWarning,0835.5,4.99,000.00,028.9,027.4,000.0,037.3,030.5,16.7,0000.0,0008.65,0004.43,0003.97
2023-09-17 07:06:00,SystemResetWarning,0835.5,5.00,000.00,028.9,027.4,000.0,037.3,030.5,16.7,0000.0,0008.68,0004.44,0003.97
2023-09-17 07:07:00,SystemResetWarning,0835.5,5.01,000.00,028.9,027.4,000.0,037.3,030.5,16.6,0000.0,0008.39,0004.42,0003.96
2023-09-17 07:08:00,SystemResetWarning,0835.5,5.00,000.00,028.9,027.4,000.0,037.4,030.5,16.6,0000.0,0008.19,0004.43,0003.97
2023-09-17 07:09:00,SystemResetWarning,0835.5,4.99,000.00,028.9,027.4,000.0,037.4,030.5,16.6,0000.0,0008.20,0004.43,0003.95
2023-09-17 07:10:00,SystemResetWarning,0835.5,5.00,000.00,028.9,027.4,000.0,037.4,030.4,16.6,0000.0,0008.15,0004.40,0003.94
2023-09-17 07:11:00,SystemResetWarning,0835.4,4.99,000.00,028.9,027.4,000.0,037.4,030.5,16.6,0000.0,0008.14,0004.41,0003.94
2023-09-17 07:12:00,SystemResetWarning,0835.4,5.00,000.00,028.9,027.4,000.0,037.4,030.4,16.6,0000.0,0008.32,0004.42,0003.93
2023-09-17 07:13:00,SystemResetWarning,0835.4,5.00,000.00,028.9,027.4,000.0,037.4,030.4,16.5,0000.0,0008.15,0004.40,0003.92
2023-09-17 07:14:00,SystemResetWarning,0835.4,5.01,000.00,028.9,027.4,000.0,037.4,030.4,16.5,0000.0,0008.18,0004.38,0003.92
2023-09-17 07:15:00,SystemResetWarning,0835.4,5.00,000.00,028.9,027.4,000.0,037.4,030.5,16.6,0000.0,0007.81,0004.34,0003.91
2023-09-17 07:16:00,SystemResetWarning,0835.4,5.01,000.00,028.9,027.4,000.0,037.3,030.5,16.8,0000.0,0007.56,0004.31,0003.89
2023-09-17 07:17:00,SystemResetWarning,0835.4,4.99,000.00,028.9,027.4,000.0,037.4,030.5,16.6,0000.0,0007.54,0004.31,0003.89
2023-09-17 07:18:00,SystemResetWarning,0835.4,4.99,000.00,028.9,027.4,000.0,037.3,030.5,16.6,0000.0,0007.71,0004.34,0003.89
2023-09-17 07:19:00,SystemResetWarning,0835.4,4.99,000.00,028.9,027.4,000.0,037.4,030.5,16.6,0000.0,0007.70,0004.33,0003.89
2023-09-17 07:20:00,SystemResetWarning,0835.4,5.00,000.00,028.9,027.4,000.0,037.3,030.5,16.7,0000.0,0007.65,0004.31,0003.88
2023-09-17 07:21:00,SystemResetWarning,0835.4,4.99,000.00,028.9,027.4,000.0,037.4,030.4,16.7,0000.0,0008.02,0004.31,0003.88
2023-09-17 07:22:00,SystemResetWarning,0835.4,5.00,000.00,028.9,027.4,000.0,037.3,030.5,16.7,0000.0,0008.25,0004.30,0003.87
2023-09-17 07:23:00,SystemResetWarning,0835.3,5.01,000.00,028.9,027.4,000.0,037.3,030.4,16.7,0000.0,0008.41,0004.30,0003.87
2023-09-17 07:24:00,SystemResetWarning,0835.4,5.01,000.00,028.9,027.4,000.0,037.3,030.4,16.6,0000.0,0008.27,0004.29,0003.87
2023-09-17 07:25:00,SystemResetWarning,0835.4,5.01,000.00,028.9,027.4,000.0,037.3,030.4,16.7,0000.0,0008.29,0004.27,0003.86
2023-09-17 07:26:00,SystemResetWarning,0835.4,5.00,000.00,028.9,027.4,000.0,037.3,030.4,16.6,0000.0,0008.42,0004.29,0003.86
2023-09-17 07:27:00,SystemResetWarning,0835.4,5.00,000.00,028.9,027.4,000.0,037.3,030.4,16.5,0000.0,0008.44,0004.28,0003.85
2023-09-17 07:28:00,SystemResetWarning,0835.4,5.00,000.00,028.9,027.4,000.0,037.3,030.5,16.5,0000.0,0008.36,0004.25,0003.84
2023-09-17 07:29:00,SystemResetWarning,0835.5,5.00,000.00,028.9,027.4,000.0,037.3,030.5,17.2,0000.0,0008.29,0004.24,0003.82
2023-09-17 07:30:00,SystemResetWarning,0835.5,4.99,000.00,028.9,027.4,000.0,037.3,030.5,17.5,0000.0,0008.29,0004.23,0003.81
2023-09-17 07:31:00,SystemResetWarning,0835.5,4.99,000.00,028.9,027.4,000.0,037.3,030.5,17.2,0000.0,0008.33,0004.23,0003.80
2023-09-17 07:32:00,SystemResetWarning,0835.5,5.00,000.00,028.9,027.5,000.0,037.3,030.5,16.8,0000.0,0007.88,0004.17,0003.79
2023-09-17 07:33:00,SystemResetWarning,0835.5,5.00,000.00,028.9,027.5,000.0,037.3,030.5,16.6,0000.0,0007.64,0004.17,0003.78
2023-09-17 07:34:00,SystemResetWarning,0835.5,5.00,000.00,028.9,027.5,000.0,037.3,030.5,16.4,0000.0,0007.38,0004.14,0003.77
2023-09-17 07:35:00,SystemResetWarning,0835.4,5.01,000.00,028.9,027.5,000.0,037.3,030.5,16.4,0000.0,0007.34,0004.12,0003.76
2023-09-17 07:36:00,SystemResetWarning,0835.5,5.00,000.00,028.9,027.5,000.0,037.3,030.5,16.5,0000.0,0006.97,0004.11,0003.74
2023-09-17 07:37:00,SystemResetWarning,0835.4,5.00,000.00,028.9,027.5,000.0,037.3,030.5,16.5,0000.0,0006.60,0004.06,0003.72
2023-09-17 07:38:00,SystemResetWarning,0835.5,5.00,000.00,029.0,027.5,000.0,037.4,030.5,16.6,0000.0,0006.56,0004.05,0003.71
2023-09-17 07:39:00,SystemResetWarning,0835.5,5.00,000.00,029.0,027.5,000.0,037.4,030.5,16.6,0000.0,0006.78,0004.06,0003.71
2023-09-17 07:40:00,SystemResetWarning,0835.4,5.00,000.00,029.0,027.5,000.0,037.4,030.5,16.5,0000.0,0006.97,0004.06,0003.70
2023-09-17 07:41:00,SystemResetWarning,0835.5,5.00,000.00,029.0,027.5,000.0,037.4,030.5,16.6,0000.0,0007.35,0004.07,0003.70
2023-09-17 07:42:00,SystemResetWarning,0835.5,5.00,000.00,029.0,027.5,000.0,037.4,030.5,16.6,0000.0,0007.37,0004.08,0003.69
2023-09-17 07:43:00,SystemResetWarning,0835.5,5.00,000.00,029.0,027.5,000.0,037.4,030.6,16.6,0000.0,0007.40,0004.09,0003.69
2023-09-17 07:44:00,SystemResetWarning,0835.5,5.00,000.00,029.0,027.5,000.0,037.4,030.6,17.2,0000.0,0007.44,0004.10,0003.69
2023-09-17 07:45:00,SystemResetWarning,0835.5,4.99,000.00,029.0,027.6,000.0,037.4,030.6,18.1,0000.0,0007.81,0004.10,0003.69
2023-09-17 07:46:00,SystemResetWarning,0835.5,4.99,000.00,029.0,027.6,000.0,037.4,030.6,18.1,0000.0,0008.08,0004.13,0003.69
2023-09-17 07:47:00,SystemResetWarning,0835.5,4.99,000.00,029.0,027.6,000.0,037.4,030.6,17.9,0000.0,0008.62,0004.13,0003.69
2023-09-17 07:48:00,SystemResetWarning,0835.5,5.01,000.00,029.0,027.6,000.0,037.4,030.6,17.7,0000.0,0008.74,0004.15,0003.70
2023-09-17 07:49:00,SystemResetWarning,0835.5,5.01,000.00,029.0,027.6,000.0,037.4,030.7,17.8,0000.0,0008.82,0004.17,0003.71
2023-09-17 07:50:00,SystemResetWarning,0835.5,5.00,000.00,029.0,027.6,000.0,037.4,030.7,17.9,0000.0,0008.79,0004.19,0003.72
2023-09-17 07:51:00,SystemResetWarning,0835.5,5.01,000.00,029.1,027.6,000.0,037.4,030.7,18.1,0000.0,0008.73,0004.18,0003.72
2023-09-17 07:52:00,SystemResetWarning,0835.5,5.01,000.00,029.1,027.7,000.0,037.4,030.7,18.3,0000.0,0008.39,0004.16,0003.72
2023-09-17 07:53:00,SystemResetWarning,0835.5,4.99,000.00,029.1,027.7,000.0,037.4,030.7,17.6,0000.0,0008.55,0004.16,0003.72
2023-09-17 07:54:00,SystemResetWarning,0835.5,4.99,000.00,029.1,027.7,000.0,037.4,030.7,17.2,0000.0,0008.67,0004.16,0003.72
2023-09-17 07:55:00,SystemResetWarning,0835.6,4.99,000.00,029.1,027.7,000.0,037.4,030.7,17.7,0000.0,0008.70,0004.14,0003.71
2023-09-17 07:56:00,SystemResetWarning,0835.5,5.01,000.00,029.1,027.7,000.0,037.4,030.7,17.8,0000.0,0008.28,0004.10,0003.70
2023-09-17 07:57:00,SystemResetWarning,0835.5,5.01,000.00,029.1,027.7,000.0,037.4,030.7,18.0,0000.0,0008.04,0004.10,0003.70
2023-09-17 07:58:00,SystemResetWarning,0835.5,5.00,000.00,029.1,027.7,000.0,037.4,030.8,18.1,0000.0,0007.47,0004.11,0003.70
2023-09-17 07:59:00,SystemResetWarning,0835.5,4.99,000.00,029.1,027.7,000.0,037.4,030.7,18.3,0000.0,0007.66,0004.12,0003.70
